Time,TemperatureF,DewpointF,PressureIn,WindDirection,WindDirectionDegrees,WindSpeedMPH,WindSpeedGustMPH,Humidity,HourlyPrecipIn,Conditions,Clouds,dailyrainin,SoftwareType,DateUTC
2013-02-08 00:00:00,38.0,36.0,30.22,WNW,290,6.0,-999.0,90,-99.99,,,-99.99,,2013-02-08 08:00:00,
2013-02-08 00:21:00,38.0,36.0,30.22,WNW,290,6.0,-999.0,90,-99.99,,,-99.99,,2013-02-08 08:21:00,
2013-02-08 00:32:00,38.0,36.0,30.22,WNW,290,6.0,-999.0,90,-99.99,,,-99.99,,2013-02-08 08:32:00,
2013-02-08 00:41:00,38.0,36.0,30.22,WNW,290,6.0,-999.0,90,-99.99,,,-99.99,,2013-02-08 08:41:00,
2013-02-08 00:52:00,38.0,36.0,30.22,WNW,290,6.0,-999.0,90,-99.99,,,-99.99,,2013-02-08 08:52:00,
2013-02-08 01:00:00,38.0,35.0,30.23,NW,320,8.0,-999.0,89,-99.99,,,-99.99,,2013-02-08 09:00:00,
2013-02-08 01:21:00,38.0,35.0,30.23,NW,320,8.0,-999.0,89,-99.99,,,-99.99,,2013-02-08 09:21:00,
2013-02-08 01:31:00,38.0,35.0,30.23,NW,320,8.0,-999.0,89,-99.99,,,-99.99,,2013-02-08 09:31:00,
2013-02-08 01:41:00,38.0,35.0,30.23,NW,320,8.0,-999.0,89,-99.99,,,-99.99,,2013-02-08 09:41:00,
2013-02-08 01:51:00,38.0,35.0,30.23,NW,320,8.0,-999.0,89,-99.99,,,-99.99,,2013-02-08 09:51:00,
2013-02-08 02:00:00,37.0,35.0,30.24,NW,310,6.0,-999.0,91,-99.99,,,-99.99,,2013-02-08 10:00:00,
2013-02-08 02:21:00,37.0,35.0,30.24,NW,310,6.0,-999.0,91,-99.99,,,-99.99,,2013-02-08 10:21:00,
2013-02-08 02:31:00,37.0,35.0,30.24,NW,310,6.0,-999.0,91,-99.99,,,-99.99,,2013-02-08 10:31:00,
2013-02-08 02:41:00,37.0,35.0,30.24,NW,310,6.0,-999.0,91,-99.99,,,-99.99,,2013-02-08 10:41:00,
2013-02-08 02:51:00,37.0,35.0,30.24,NW,310,6.0,-999.0,91,-99.99,,,-99.99,,2013-02-08 10:51:00,
2013-02-08 03:00:00,37.0,35.0,30.25,NW,310,6.0,-999.0,93,-99.99,,,-99.99,,2013-02-08 11:00:00,
2013-02-08 03:21:00,37.0,35.0,30.25,NW,310,6.0,-999.0,93,-99.99,,,-99.99,,2013-02-08 11:21:00,
2013-02-08 03:32:00,37.0,35.0,30.25,NW,310,6.0,-999.0,93,-99.99,,,-99.99,,2013-02-08 11:32:00,
2013-02-08 03:41:00,37.0,35.0,30.25,NW,310,6.0,-999.0,93,-99.99,,,-99.99,,2013-02-08 11:41:00,
2013-02-08 03:52:00,37.0,35.0,30.25,NW,310,6.0,-999.0,93,-99.99,,,-99.99,,2013-02-08 11:52:00,
2013-02-08 04:00:00,36.0,35.0,30.26,NW,320,6.0,-999.0,96,-99.99,,,-99.99,,2013-02-08 12:00:00,
2013-02-08 04:21:00,36.0,35.0,30.26,NW,320,6.0,-999.0,96,-99.99,,,-99.99,,2013-02-08 12:21:00,
2013-02-08 04:32:00,36.0,35.0,30.26,NW,320,6.0,-999.0,96,-99.99,,,-99.99,,2013-02-08 12:32:00,
2013-02-08 04:41:00,36.0,35.0,30.26,NW,320,6.0,-999.0,96,-99.99,,,-99.99,,2013-02-08 12:41:00,
2013-02-08 04:52:00,36.0,35.0,30.26,NW,320,6.0,-999.0,96,-99.99,,,-99.99,,2013-02-08 12:52:00,
2013-02-08 05:00:00,38.0,36.0,30.27,West,260,6.0,-999.0,93,-99.99,,,-99.99,,2013-02-08 13:00:00,
2013-02-08 05:21:00,38.0,36.0,30.27,West,260,6.0,-999.0,93,-99.99,,,-99.99,,2013-02-08 13:21:00,
2013-02-08 05:31:00,38.0,36.0,30.27,West,260,6.0,-999.0,93,-99.99,,,-99.99,,2013-02-08 13:31:00,
2013-02-08 05:42:00,38.0,36.0,30.27,West,260,6.0,-999.0,93,-99.99,,,-99.99,,2013-02-08 13:42:00,
2013-02-08 05:51:00,38.0,36.0,30.27,West,260,6.0,-999.0,93,-99.99,,,-99.99,,2013-02-08 13:51:00,
2013-02-08 06:00:00,36.0,34.0,30.27,West,280,7.0,-999.0,92,-99.99,,,-99.99,,2013-02-08 14:00:00,
2013-02-08 06:21:00,36.0,34.0,30.27,West,280,7.0,-999.0,92,-99.99,,,-99.99,,2013-02-08 14:21:00,
2013-02-08 06:32:00,36.0,34.0,30.27,West,280,7.0,-999.0,92,-99.99,,,-99.99,,2013-02-08 14:32:00,
2013-02-08 06:41:00,36.0,34.0,30.27,West,280,7.0,-999.0,92,-99.99,,,-99.99,,2013-02-08 14:41:00,
2013-02-08 06:52:00,36.0,34.0,30.27,West,280,7.0,-999.0,92,-99.99,,,-99.99,,2013-02-08 14:52:00,
2013-02-08 07:00:00,35.0,34.0,30.29,WNW,300,6.0,-999.0,95,-99.99,,,-99.99,,2013-02-08 15:00:00,
2013-02-08 07:21:00,35.0,34.0,30.29,WNW,300,6.0,-999.0,95,-99.99,,,-99.99,,2013-02-08 15:21:00,
2013-02-08 07:31:00,35.0,34.0,30.29,WNW,300,6.0,-999.0,95,-99.99,,,-99.99,,2013-02-08 15:31:00,
2013-02-08 07:41:00,35.0,34.0,30.29,WNW,300,6.0,-999.0,95,-99.99,,,-99.99,,2013-02-08 15:41:00,
2013-02-08 07:51:00,35.0,34.0,30.29,WNW,300,6.0,-999.0,95,-99.99,,,-99.99,,2013-02-08 15:51:00,
2013-02-08 08:00:00,36.0,34.0,30.30,WNW,300,6.0,-999.0,93,-99.99,,,-99.99,,2013-02-08 16:00:00,
2013-02-08 08:21:00,36.0,34.0,30.30,WNW,300,6.0,-999.0,93,-99.99,,,-99.99,,2013-02-08 16:21:00,
2013-02-08 08:32:00,36.0,34.0,30.30,WNW,300,6.0,-999.0,93,-99.99,,,-99.99,,2013-02-08 16:32:00,
2013-02-08 08:41:00,36.0,34.0,30.30,WNW,300,6.0,-999.0,93,-99.99,,,-99.99,,2013-02-08 16:41:00,
2013-02-08 08:51:00,36.0,34.0,30.30,WNW,300,6.0,-999.0,93,-99.99,,,-99.99,,2013-02-08 16:51:00,
2013-02-08 09:00:00,36.0,34.0,30.31,WNW,300,5.0,-999.0,92,-99.99,,,-99.99,,2013-02-08 17:00:00,
2013-02-08 09:21:00,36.0,34.0,30.31,WNW,300,5.0,-999.0,92,-99.99,,,-99.99,,2013-02-08 17:21:00,
2013-02-08 09:31:00,36.0,34.0,30.31,WNW,300,5.0,-999.0,92,-99.99,,,-99.99,,2013-02-08 17:31:00,
2013-02-08 09:41:00,36.0,34.0,30.31,WNW,300,5.0,-999.0,92,-99.99,,,-99.99,,2013-02-08 17:41:00,
2013-02-08 09:52:00,36.0,34.0,30.31,WNW,300,5.0,-999.0,92,-99.99,,,-99.99,,2013-02-08 17:52:00,
2013-02-08 10:00:00,39.0,35.0,30.31,West,270,3.0,-999.0,86,-99.99,,,-99.99,,2013-02-08 18:00:00,
2013-02-08 10:22:00,39.0,35.0,30.31,West,270,3.0,-999.0,86,-99.99,,,-99.99,,2013-02-08 18:22:00,
2013-02-08 10:32:00,39.0,35.0,30.31,West,270,3.0,-999.0,86,-99.99,,,-99.99,,2013-02-08 18:32:00,
2013-02-08 10:41:00,39.0,35.0,30.31,West,270,3.0,-999.0,86,-99.99,,,-99.99,,2013-02-08 18:41:00,
2013-02-08 10:52:00,39.0,35.0,30.31,West,270,3.0,-999.0,86,-99.99,,,-99.99,,2013-02-08 18:52:00,
2013-02-08 11:00:00,41.0,37.0,30.32,West,260,5.0,-999.0,85,-99.99,,,-99.99,,2013-02-08 19:00:00,
2013-02-08 11:21:00,41.0,37.0,30.32,West,260,5.0,-999.0,85,-99.99,,,-99.99,,2013-02-08 19:21:00,
2013-02-08 11:31:00,41.0,37.0,30.32,West,260,5.0,-999.0,85,-99.99,,,-99.99,,2013-02-08 19:31:00,
2013-02-08 11:41:00,41.0,37.0,30.32,West,260,5.0,-999.0,85,-99.99,,,-99.99,,2013-02-08 19:41:00,
2013-02-08 11:51:00,41.0,37.0,30.32,West,260,5.0,-999.0,85,-99.99,,,-99.99,,2013-02-08 19:51:00,
2013-02-08 12:00:00,44.0,37.0,30.31,West,260,2.0,-999.0,75,-99.99,,,-99.99,,2013-02-08 20:00:00,
2013-02-08 12:21:00,44.0,37.0,30.31,West,260,2.0,-999.0,75,-99.99,,,-99.99,,2013-02-08 20:21:00,
2013-02-08 12:31:00,44.0,37.0,30.31,West,260,2.0,-999.0,75,-99.99,,,-99.99,,2013-02-08 20:31:00,
2013-02-08 12:41:00,44.0,37.0,30.31,West,260,2.0,-999.0,75,-99.99,,,-99.99,,2013-02-08 20:41:00,
2013-02-08 12:52:00,44.0,37.0,30.31,West,260,2.0,-999.0,75,-99.99,,,-99.99,,2013-02-08 20:52:00,
2013-02-08 13:00:00,45.0,38.0,30.29,West,280,3.0,-999.0,74,-99.99,,,-99.99,,2013-02-08 21:00:00,
2013-02-08 13:21:00,45.0,38.0,30.29,West,280,3.0,-999.0,74,-99.99,,,-99.99,,2013-02-08 21:21:00,
2013-02-08 13:32:00,45.0,38.0,30.29,West,280,3.0,-999.0,74,-99.99,,,-99.99,,2013-02-08 21:32:00,
2013-02-08 13:41:00,45.0,38.0,30.29,West,280,3.0,-999.0,74,-99.99,,,-99.99,,2013-02-08 21:41:00,
2013-02-08 13:52:00,45.0,38.0,30.29,West,280,3.0,-999.0,74,-99.99,,,-99.99,,2013-02-08 21:52:00,
2013-02-08 15:00:00,45.0,38.0,30.29,East,80,6.0,-999.0,76,-99.99,,,-99.99,,2013-02-08 23:00:00,
2013-02-08 15:21:00,45.0,38.0,30.29,East,80,6.0,-999.0,76,-99.99,,,-99.99,,2013-02-08 23:21:00,
2013-02-08 15:31:00,45.0,38.0,30.29,East,80,6.0,-999.0,76,-99.99,,,-99.99,,2013-02-08 23:31:00,
2013-02-08 15:41:00,45.0,38.0,30.29,East,80,6.0,-999.0,76,-99.99,,,-99.99,,2013-02-08 23:41:00,
2013-02-08 15:51:00,45.0,38.0,30.29,East,80,6.0,-999.0,76,-99.99,,,-99.99,,2013-02-08 23:51:00,
2013-02-08 16:00:00,44.0,38.0,30.29,East,90,7.0,-999.0,79,-99.99,,,-99.99,,2013-02-09 00:00:00,
2013-02-08 16:21:00,44.0,38.0,30.29,East,90,7.0,-999.0,79,-99.99,,,-99.99,,2013-02-09 00:21:00,
2013-02-08 16:31:00,44.0,38.0,30.29,East,90,7.0,-999.0,79,-99.99,,,-99.99,,2013-02-09 00:31:00,
2013-02-08 16:41:00,44.0,38.0,30.29,East,90,7.0,-999.0,79,-99.99,,,-99.99,,2013-02-09 00:41:00,
2013-02-08 16:51:00,44.0,38.0,30.29,East,90,7.0,-999.0,79,-99.99,,,-99.99,,2013-02-09 00:51:00,
2013-02-08 17:00:00,44.0,39.0,30.29,ENE,70,5.0,-999.0,81,-99.99,,,-99.99,,2013-02-09 01:00:00,
2013-02-08 17:21:00,44.0,39.0,30.29,ENE,70,5.0,-999.0,81,-99.99,,,-99.99,,2013-02-09 01:21:00,
2013-02-08 17:31:00,44.0,39.0,30.29,ENE,70,5.0,-999.0,81,-99.99,,,-99.99,,2013-02-09 01:31:00,
2013-02-08 17:41:00,44.0,39.0,30.29,ENE,70,5.0,-999.0,81,-99.99,,,-99.99,,2013-02-09 01:41:00,
2013-02-08 17:51:00,44.0,39.0,30.29,ENE,70,5.0,-999.0,81,-99.99,,,-99.99,,2013-02-09 01:51:00,
2013-02-08 18:00:00,44.0,39.0,30.29,ENE,60,2.0,-999.0,84,-99.99,,,-99.99,,2013-02-09 02:00:00,
2013-02-08 18:21:00,44.0,39.0,30.29,ENE,60,2.0,-999.0,84,-99.99,,,-99.99,,2013-02-09 02:21:00,
2013-02-08 18:31:00,44.0,39.0,30.29,ENE,60,2.0,-999.0,84,-99.99,,,-99.99,,2013-02-09 02:31:00,
2013-02-08 18:41:00,44.0,39.0,30.29,ENE,60,2.0,-999.0,84,-99.99,,,-99.99,,2013-02-09 02:41:00,
2013-02-08 18:52:00,44.0,39.0,30.29,ENE,60,2.0,-999.0,84,-99.99,,,-99.99,,2013-02-09 02:52:00,
2013-02-08 19:00:00,43.0,39.0,30.29,ESE,120,1.0,-999.0,85,-99.99,,,-99.99,,2013-02-09 03:00:00,
2013-02-08 19:21:00,43.0,39.0,30.29,ESE,120,1.0,-999.0,85,-99.99,,,-99.99,,2013-02-09 03:21:00,
2013-02-08 19:31:00,43.0,39.0,30.29,ESE,120,1.0,-999.0,85,-99.99,,,-99.99,,2013-02-09 03:31:00,
2013-02-08 19:41:00,43.0,39.0,30.29,ESE,120,1.0,-999.0,85,-99.99,,,-99.99,,2013-02-09 03:41:00,
2013-02-08 19:51:00,43.0,39.0,30.29,ESE,120,1.0,-999.0,85,-99.99,,,-99.99,,2013-02-09 03:51:00,
2013-02-08 20:00:00,42.0,39.0,30.29,North,0,0.0,-999.0,87,-99.99,,,-99.99,,2013-02-09 04:00:00,
2013-02-08 20:22:00,42.0,39.0,30.29,North,0,0.0,-999.0,87,-99.99,,,-99.99,,2013-02-09 04:22:00,
2013-02-08 20:31:00,42.0,39.0,30.29,North,0,0.0,-999.0,87,-99.99,,,-99.99,,2013-02-09 04:31:00,
2013-02-08 20:41:00,42.0,39.0,30.29,North,0,0.0,-999.0,87,-99.99,,,-99.99,,2013-02-09 04:41:00,
2013-02-08 20:51:00,42.0,39.0,30.29,North,0,0.0,-999.0,87,-99.99,,,-99.99,,2013-02-09 04:51:00,
2013-02-08 21:00:00,41.0,39.0,30.29,North,0,0.0,-999.0,92,-99.99,,,-99.99,,2013-02-09 05:00:00,
2013-02-08 21:31:00,41.0,39.0,30.29,North,0,0.0,-999.0,92,-99.99,,,-99.99,,2013-02-09 05:31:00,
2013-02-08 21:41:00,41.0,39.0,30.29,North,0,0.0,-999.0,92,-99.99,,,-99.99,,2013-02-09 05:41:00,
2013-02-08 21:51:00,41.0,39.0,30.29,North,0,0.0,-999.0,92,-99.99,,,-99.99,,2013-02-09 05:51:00,
2013-02-08 22:00:00,40.0,39.0,30.30,North,0,0.0,-999.0,95,-99.99,,,-99.99,,2013-02-09 06:00:00,
2013-02-08 22:21:00,40.0,39.0,30.30,North,0,0.0,-999.0,95,-99.99,,,-99.99,,2013-02-09 06:21:00,
2013-02-08 22:31:00,40.0,39.0,30.30,North,0,0.0,-999.0,95,-99.99,,,-99.99,,2013-02-09 06:31:00,
2013-02-08 22:41:00,40.0,39.0,30.30,North,0,0.0,-999.0,95,-99.99,,,-99.99,,2013-02-09 06:41:00,
2013-02-08 22:51:00,40.0,39.0,30.30,North,0,0.0,-999.0,95,-99.99,,,-99.99,,2013-02-09 06:51:00,
2013-02-08 23:00:00,42.0,41.0,30.29,WSW,240,2.0,-999.0,94,-99.99,,,-99.99,,2013-02-09 07:00:00,
2013-02-08 23:21:00,42.0,41.0,30.29,WSW,240,2.0,-999.0,94,-99.99,,,-99.99,,2013-02-09 07:21:00,
2013-02-08 23:31:00,42.0,41.0,30.29,WSW,240,2.0,-999.0,94,-99.99,,,-99.99,,2013-02-09 07:31:00,
2013-02-08 23:41:00,42.0,41.0,30.29,WSW,240,2.0,-999.0,94,-99.99,,,-99.99,,2013-02-09 07:41:00,
2013-02-08 23:51:00,42.0,41.0,30.29,WSW,240,2.0,-999.0,94,-99.99,,,-99.99,,2013-02-09 07:51:00,